FW1932 Weather Reports


time (UTC)temp
C
wind
direction
speed
KPH
gust
KPH
rain 1hr
cm
rain 24hr
cm
rain mn
cm
humidity
%
barometer
mb
20260905144524 23 244 3.2 12.9 0.00 0.38 0.38 71 1025.5
20260905143015 23 243 1.6 11.3 0.00 0.38 0.38 73 1025.5
20260905141516 23 257 1.6 6.4 0.00 0.38 0.38 76 1025.7
20260905140020 22 238 4.8 9.7 0.00 0.38 0.38 78 1025.8
20260905134514 21 231 0.0 4.8 0.00 0.38 0.38 83 1025.8
20260905133020 21 252 1.6 9.7 0.03 0.38 0.38 84 1026.0
20260905131511 20 242 1.6 9.7 0.10 0.38 0.38 85 1025.9
20260905130011 19 233 1.6 11.3 0.15 0.38 0.38 90 1025.8
20260905124511 18 239 4.8 11.3 0.15 0.38 0.38 92 1026.2
20260905123012 18 245 1.6 6.4 0.15 0.36 0.36 92 1026.3
20260905121508 18 253 1.6 9.7 0.08 0.28 0.28 92 1026.2
20260905120014 19 230 3.2 4.8 0.08 0.23 0.23 91 1026.1
20260905114503 19 241 0.0 3.2 0.13 0.23 0.23 91 1026.0
20260905113001 19 219 0.0 0.0 0.23 0.23 0.23 91 1026.1
20260905111653 20 220 0.0 0.0 0.20 0.20 0.20 90 1026.2
20260905110057 20 220 0.0 1.6 0.15 0.15 0.15 87 1026.0
20260905104556 21 219 0.0 3.2 0.10 0.10 0.10 85 1025.9
20260905103101 22 79 0.0 0.0 0.00 0.00 0.00 79 1025.4
20260905101551 22 243 0.0 0.0 0.00 0.00 0.00 75 1025.2
20260905100055 23 243 0.0 1.6 0.00 0.00 0.00 75 1025.1
20260905094549 22 243 0.0 1.6 0.00 0.00 0.00 75 1024.9
20260905093059 22 243 0.0 3.2 0.00 0.00 0.00 74 1025.0
20260905091548 22 241 0.0 4.8 0.00 0.00 0.00 77 1024.8
20260905090045 21 233 0.0 4.8 0.00 0.00 0.00 78 1024.8
20260905084544 21 249 0.0 1.6 0.00 0.00 0.00 80 1024.6
20260905083043 21 245 0.0 1.6 0.00 0.00 0.00 80 1024.6
20260905081542 21 247 0.0 1.6 0.00 0.00 0.00 81 1024.3
20260905080039 21 247 0.0 1.6 0.00 0.00 0.00 81 1024.2
20260905074539 21 250 0.0 1.6 0.00 0.00 0.00 81 1024.1
20260905073040 20 228 0.0 1.6 0.00 0.00 0.00 81 1024.1
20260905071538 20 248 0.0 0.0 0.00 0.00 0.00 83 1023.9
20260905070047 20 248 0.0 0.0 0.00 0.00 0.00 81 1023.7
20260905064546 20 248 0.0 1.6 0.00 0.00 0.00 82 1023.5
20260905063033 20 248 0.0 3.2 0.00 0.00 0.00 82 1023.5
20260905061532 20 248 0.0 1.6 0.00 0.00 0.00 83 1023.4
20260905060029 20 248 0.0 0.0 0.00 0.00 0.00 84 1023.2
20260905054535 20 240 0.0 1.6 0.00 0.00 0.00 85 1022.8
20260905053025 20 85 0.0 0.0 0.00 0.00 0.00 82 1022.6
20260905051538 20 85 0.0 1.6 0.00 0.00 0.00 82 1022.6
20260905050022 20 236 0.0 0.0 0.00 0.00 0.00 81 1022.4
20260905044521 20 233 0.0 0.0 0.00 0.00 0.00 83 1022.2
20260905043018 20 233 0.0 1.6 0.00 0.00 0.00 80 1021.6
20260905041515 21 246 0.0 3.2 0.00 0.00 0.00 77 1021.5
20260905040021 21 260 0.0 3.2 0.00 0.00 0.00 73 1021.6
20260905034524 21 250 0.0 1.6 0.00 0.00 0.00 72 1021.6
20260905033019 21 250 0.0 3.2 0.00 0.00 0.00 72 1021.5
20260905031510 21 253 0.0 1.6 0.00 0.00 0.00 71 1021.4
20260905030008 21 248 0.0 1.6 0.00 0.00 0.00 70 1021.3
20260905024510 21 245 0.0 6.4 0.00 0.00 0.00 70 1021.1
20260905023006 21 250 1.6 6.4 0.00 0.00 0.00 69 1021.1
20260905021505 21 219 0.0 1.6 0.00 0.00 0.00 69 1021.0
20260905020004 21 151 0.0 1.6 0.00 0.00 0.00 69 1021.0
20260905014503 21 152 0.0 1.6 0.00 0.00 0.00 70 1020.9
20260905013003 21 200 0.0 0.0 0.00 0.00 0.00 71 1021.1
20260905011500 21 200 0.0 0.0 0.00 0.00 0.00 69 1020.8
20260905010059 21 200 0.0 1.6 0.00 0.00 0.00 68 1020.5
20260905004558 21 225 0.0 1.6 0.00 0.00 0.00 69 1020.7
20260905003058 21 224 0.0 1.6 0.00 0.00 0.00 69 1020.5
20260905001559 21 224 0.0 1.6 0.00 0.00 0.00 69 1020.2
20260905000053 22 224 0.0 0.0 0.00 0.00 0.00 68 1020.3
20260904234553 22 224 0.0 1.6 0.00 0.00 0.00 67 1019.9
20260904233051 22 224 0.0 1.6 0.00 0.00 0.00 66 1019.5
20260904231544 23 115 0.0 0.0 0.00 0.00 0.00 63 1019.5
20260904230041 23 115 0.0 1.6 0.00 0.00 0.00 62 1019.4
20260904224537 24 193 0.0 1.6 0.00 0.00 0.00 60 1019.3
20260904223046 25 252 0.0 1.6 0.00 0.00 0.00 59 1019.1
20260904221544 25 265 0.0 6.4 0.00 0.00 0.00 58 1019.0
20260904220029 25 250 0.0 3.2 0.00 0.00 0.00 57 1018.9
20260904214528 26 250 0.0 8.0 0.00 0.00 0.00 56 1018.8
20260904213028 26 253 0.0 6.4 0.00 0.00 0.00 55 1018.6
20260904211534 26 233 0.0 3.2 0.00 0.00 0.00 56 1018.6
20260904210026 26 248 0.0 1.6 0.00 0.00 0.00 56 1018.5
20260904204528 26 255 0.0 1.6 0.00 0.00 0.00 55 1018.5
20260904203031 26 248 1.6 6.4 0.00 0.00 0.00 54 1018.3
20260904201530 27 250 0.0 3.2 0.00 0.00 0.00 54 1018.4
20260904200134 27 245 0.0 4.8 0.00 0.00 0.00 53 1018.2
20260904194557 27 259 1.6 3.2 0.00 0.00 0.00 53 1018.1
20260904193035 27 262 0.0 1.6 0.00 0.00 0.00 53 1018.1
20260904191523 27 226 0.0 1.6 0.00 0.00 0.00 53 1018.0
20260904190022 27 207 0.0 1.6 0.00 0.00 0.00 54 1017.9
20260904184522 27 212 0.0 1.6 0.00 0.00 0.00 53 1017.8
20260904183021 28 212 0.0 1.6 0.00 0.00 0.00 52 1017.7
20260904181521 28 252 0.0 1.6 0.00 0.00 0.00 51 1017.6
20260904180020 29 252 0.0 3.2 0.00 0.00 0.00 51 1017.6
20260904174519 29 254 1.6 4.8 0.00 0.00 0.00 50 1017.5
20260904173027 30 238 0.0 3.2 0.00 0.00 0.00 49 1017.4
20260904171525 30 226 3.2 8.0 0.00 0.00 0.00 47 1017.4
20260904170017 30 173 0.0 3.2 0.00 0.00 0.00 47 1017.4
20260904164518 31 190 0.0 14.5 0.00 0.00 0.00 46 1017.3
20260904163017 31 214 3.2 11.3 0.00 0.00 0.00 44 1017.4
20260904161516 32 85 0.0 4.8 0.00 0.00 0.00 44 1017.4
20260904160017 33 245 0.0 4.8 0.00 0.00 0.00 42 1017.3
20260904154513 34 257 1.6 6.4 0.00 0.00 0.00 40 1017.4
20260904153021 33 79 0.0 6.4 0.00 0.00 0.00 41 1017.5
20260904151514 33 70 0.0 6.4 0.00 0.00 0.00 41 1017.5
20260904150009 33 222 4.8 14.5 0.00 0.00 0.00 41 1017.5